Terminal Aerodrome Forecast
Issued by NWS

Home | Current Version | Previous Version | Text Only | Print | Product List | Glossary On
Versions: 1 2 3 4 5 6 7 8 9 10 11 12 13 14 15 16 17 18
000
FTUS45 KFGZ 302000 AAA
TAFGCN
TAF AMD
KGCN 302056Z 3021/3118 08008KT 6SM -RA BKN008 OVC025
      TEMPO 3021/3101 2SM -RA BR OVC008
     FM310100 VRB03KT 5SM -SHRA BKN025 OVC040=

USA.gov is the U.S. government's official web portal to all federal, state and local government web resources and services.